Time,TemperatureF,DewpointF,PressureIn,WindDirection,WindDirectionDegrees,WindSpeedMPH,WindSpeedGustMPH,Humidity,HourlyPrecipIn,Conditions,Clouds,dailyrainin,SoftwareType,DateUTC
2013-03-23 00:00:00,12.0,-99.9,-100.00,North,-999,-999.0,-999.0,-999,-99.99,,,0.00,,2013-03-23 06:00:00,
2013-03-23 01:00:00,11.0,-99.9,-100.00,North,-999,-999.0,-999.0,-999,-99.99,,,0.00,,2013-03-23 07:00:00,
2013-03-23 01:53:00,11.0,-99.9,-100.00,North,-999,-999.0,-999.0,-999,-99.99,,,0.00,,2013-03-23 07:53:00,
2013-03-23 02:00:00,10.0,-99.9,-100.00,North,-999,-999.0,-999.0,-999,-99.99,,,0.00,,2013-03-23 08:00:00,
2013-03-23 03:00:00,11.0,-99.9,-100.00,North,-999,-999.0,-999.0,-999,-99.99,,,0.00,,2013-03-23 09:00:00,
2013-03-23 04:00:00,10.0,-99.9,-100.00,North,-999,-999.0,-999.0,-999,-99.99,,,0.00,,2013-03-23 10:00:00,
2013-03-23 04:53:00,10.0,-99.9,-100.00,North,-999,-999.0,-999.0,-999,-99.99,,,0.00,,2013-03-23 10:53:00,
2013-03-23 05:00:00,10.0,-99.9,-100.00,North,-999,-999.0,-999.0,-999,-99.99,,,-99.99,,2013-03-23 11:00:00,
2013-03-23 06:00:00,10.0,-99.9,-100.00,North,-999,-999.0,-999.0,-999,-99.99,,,-99.99,,2013-03-23 12:00:00,
2013-03-23 07:00:00,11.0,-99.9,-100.00,North,-999,-999.0,-999.0,-999,-99.99,,,0.01,,2013-03-23 13:00:00,
2013-03-23 08:00:00,11.0,-99.9,-100.00,North,-999,-999.0,-999.0,-999,-99.99,,,-99.99,,2013-03-23 14:00:00,
2013-03-23 09:00:00,13.0,-99.9,-100.00,North,-999,-999.0,-999.0,-999,-99.99,,,0.00,,2013-03-23 15:00:00,
2013-03-23 10:00:00,14.0,-99.9,-100.00,North,-999,-999.0,-999.0,-999,-99.99,,,0.01,,2013-03-23 16:00:00,
2013-03-23 10:54:00,14.0,-99.9,-100.00,North,-999,-999.0,-999.0,-999,-99.99,,,0.01,,2013-03-23 16:54:00,
2013-03-23 11:00:00,15.0,-99.9,-100.00,North,-999,-999.0,-999.0,-999,-99.99,,,0.00,,2013-03-23 17:00:00,
2013-03-23 12:00:00,18.0,-99.9,-100.00,North,-999,-999.0,-999.0,-999,-99.99,,,0.01,,2013-03-23 18:00:00,
2013-03-23 13:00:00,16.0,-99.9,-100.00,North,-999,-999.0,-999.0,-999,-99.99,,,0.01,,2013-03-23 19:00:00,
2013-03-23 14:00:00,22.0,-99.9,-100.00,North,-999,-999.0,-999.0,-999,-99.99,,,0.01,,2013-03-23 20:00:00,
2013-03-23 15:00:00,19.0,-99.9,-100.00,North,-999,-999.0,-999.0,-999,-99.99,,,0.01,,2013-03-23 21:00:00,
2013-03-23 15:54:00,19.0,-99.9,-100.00,North,-999,-999.0,-999.0,-999,-99.99,,,0.01,,2013-03-23 21:54:00,
2013-03-23 16:00:00,20.0,-99.9,-100.00,North,-999,-999.0,-999.0,-999,-99.99,,,0.01,,2013-03-23 22:00:00,
2013-03-23 17:00:00,18.0,-99.9,-100.00,North,-999,-999.0,-999.0,-999,-99.99,,,0.00,,2013-03-23 23:00:00,
2013-03-23 18:00:00,18.0,-99.9,-100.00,North,-999,-999.0,-999.0,-999,-99.99,,,0.00,,2013-03-24 00:00:00,
2013-03-23 19:00:00,16.0,-99.9,-100.00,North,-999,-999.0,-999.0,-999,-99.99,,,0.00,,2013-03-24 01:00:00,
2013-03-23 19:53:00,16.0,-99.9,-100.00,North,-999,-999.0,-999.0,-999,-99.99,,,0.00,,2013-03-24 01:53:00,
2013-03-23 20:00:00,16.0,-99.9,-100.00,North,-999,-999.0,-999.0,-999,-99.99,,,0.00,,2013-03-24 02:00:00,
2013-03-23 21:00:00,14.0,-99.9,-100.00,North,-999,-999.0,-999.0,-999,-99.99,,,0.01,,2013-03-24 03:00:00,
2013-03-23 22:00:00,12.0,-99.9,-100.00,North,-999,-999.0,-999.0,-999,-99.99,,,0.00,,2013-03-24 04:00:00,